EW5697 Weather Reports


Display with metric or nautical units.
time (UTC)temp
F
wind
direction
speed
MPH
gust
MPH
rain 1hr
in
rain 24hr
in
rain mn
in
humidity
%
barometer
mb
20260902191555 49 143 0.0 7.0 0.00 0.02 0.02 91 1017.3
20260902190051 48 125 0.0 19.0 0.00 0.02 0.02 92 1017.2
20260902184558 48 134 0.0 8.0 0.01 0.02 0.02 91 1017.2
20260902183056 48 185 0.0 17.0 0.01 0.02 0.02 91 1017.2
20260902181548 48 170 0.0 5.0 0.02 0.02 0.02 91 1017.0
20260902180045 48 241 0.0 14.0 0.02 0.02 0.02 91 1017.0
20260902174546 48 134 0.0 20.0 0.01 0.01 0.01 91 1016.9
20260902173042 49 212 0.0 12.0 0.01 0.01 0.01 90 1016.7
20260902171542 49 142 0.0 6.0 0.00 0.00 0.00 90 1016.7
20260902170045 49 137 0.0 3.0 0.00 0.00 0.00 90 1016.7
20260902164541 49 159 0.0 6.0 0.00 0.00 0.00 90 1016.5
20260902163050 49 18 0.0 4.0 0.00 0.00 0.00 90 1016.4
20260902161535 49 159 0.0 4.0 0.00 0.00 0.00 90 1015.9
20260902160035 49 148 0.0 10.0 0.00 0.00 0.00 90 1015.8
20260902154535 48 191 0.0 9.0 0.00 0.00 0.00 90 1015.7
20260902153032 48 151 0.0 4.0 0.00 0.00 0.00 91 1016.0
20260902151530 48 162 0.0 9.0 0.00 0.00 0.00 90 1016.1
20260902150029 48 120 0.0 1.0 0.00 0.00 0.00 90 1015.8
20260902144537 48 166 0.0 8.0 0.00 0.00 0.00 90 1015.9
20260902143025 48 160 0.0 20.0 0.00 0.00 0.00 90 1015.9
20260902141522 48 141 0.0 21.0 0.00 0.00 0.00 90 1015.7
20260902140021 48 151 0.0 4.0 0.00 0.00 0.00 89 1015.8
20260902134520 49 119 0.0 8.0 0.00 0.00 0.00 89 1015.6
20260902133018 49 197 0.0 5.0 0.00 0.00 0.00 88 1015.8
20260902131516 49 105 0.0 12.0 0.00 0.00 0.00 87 1015.7
20260902130014 50 212 0.0 11.0 0.00 0.00 0.00 86 1015.8
20260902124514 50 157 0.0 4.0 0.00 0.00 0.00 86 1015.7
20260902123013 50 154 0.0 3.0 0.00 0.00 0.00 86 1015.7
20260902121511 50 127 0.0 0.0 0.00 0.00 0.00 86 1015.8
20260902120012 50 160 0.0 3.0 0.00 0.00 0.00 86 1016.1
20260902114514 50 171 0.0 1.0 0.00 0.00 0.00 86 1015.9
20260902113013 50 197 0.0 1.0 0.00 0.00 0.00 86 1015.9
20260902111509 51 140 0.0 1.0 0.00 0.00 0.00 85 1015.9
20260902110016 51 172 0.0 8.0 0.00 0.00 0.00 85 1015.8
20260902104506 51 157 0.0 4.0 0.00 0.00 0.00 84 1015.7
20260902103004 52 151 0.0 3.0 0.00 0.00 0.00 83 1015.8
20260902101504 52 126 0.0 1.0 0.00 0.00 0.00 83 1015.9
20260902100003 52 160 0.0 1.0 0.00 0.00 0.00 83 1016.0
20260902094502 52 207 0.0 2.0 0.00 0.00 0.00 83 1016.1
20260902093001 52 160 0.0 1.0 0.00 0.00 0.00 83 1016.0
20260902091604 52 173 0.0 4.0 0.00 0.00 0.00 83 1016.1
20260902090100 52 159 0.0 1.0 0.00 0.00 0.00 83 1016.3
20260902084558 52 145 0.0 1.0 0.00 0.00 0.00 82 1016.1
20260902083119 52 158 0.0 4.0 0.00 0.00 0.00 81 1016.1
20260902081555 52 141 0.0 0.0 0.00 0.00 0.00 81 1016.0
20260902080056 52 148 0.0 2.0 0.00 0.00 0.00 81 1016.0
20260902074604 52 138 0.0 3.0 0.00 0.00 0.00 80 1015.7
20260902073049 52 140 0.0 2.0 0.00 0.00 0.00 80 1015.5
20260902071548 52 147 0.0 2.0 0.00 0.00 0.00 80 1015.4
20260902070047 52 160 0.0 2.0 0.00 0.00 0.00 78 1015.5
20260902064551 52 141 0.0 4.0 0.00 0.00 0.00 77 1015.5
20260902063056 53 135 0.0 1.0 0.00 0.00 0.00 75 1015.5
20260902061547 53 131 0.0 2.0 0.00 0.00 0.00 74 1015.6
20260902060043 53 207 0.0 1.0 0.00 0.00 0.00 73 1015.5
20260902054546 53 149 0.0 9.0 0.00 0.00 0.00 72 1015.7
20260902053041 53 142 0.0 8.0 0.00 0.00 0.00 72 1015.5
20260902051545 53 143 0.0 8.0 0.00 0.00 0.00 70 1015.7
20260902050057 53 168 0.0 4.0 0.00 0.00 0.00 70 1015.6
20260902044539 53 171 0.0 4.0 0.00 0.00 0.00 68 1015.5
20260902043045 53 141 0.0 3.0 0.00 0.00 0.00 68 1015.3
20260902041537 53 180 0.0 2.0 0.00 0.00 0.00 67 1015.3
20260902040038 54 197 0.0 4.0 0.00 0.00 0.00 67 1015.4
20260902034536 54 139 0.0 18.0 0.00 0.00 0.00 67 1015.0
20260902033034 54 156 0.0 3.0 0.00 0.00 0.00 66 1015.0
20260902031533 54 153 0.0 13.0 0.00 0.00 0.00 65 1015.0
20260902030031 55 166 0.0 5.0 0.00 0.00 0.00 63 1014.7
20260902024531 55 212 0.0 10.0 0.00 0.00 0.00 62 1014.5
20260902023028 56 153 0.0 14.0 0.00 0.00 0.00 61 1014.3
20260902021528 56 202 0.0 6.0 0.00 0.00 0.00 58 1014.3
20260902020028 57 212 0.0 8.0 0.00 0.00 0.00 56 1014.0
20260902014527 58 136 0.0 6.0 0.00 0.00 0.00 55 1014.0
20260902013027 59 147 0.0 10.0 0.00 0.00 0.00 52 1014.0
20260902011533 61 176 0.0 10.0 0.00 0.00 0.00 50 1014.2
20260902010029 61 218 0.0 9.0 0.00 0.00 0.00 50 1014.1
20260902004623 62 195 0.0 12.0 0.00 0.00 0.00 50 1014.0
20260902003027 62 115 0.0 3.0 0.00 0.00 0.00 48 1014.1
20260902001523 63 151 0.0 3.0 0.00 0.00 0.00 48 1014.2
20260902000024 63 144 0.0 6.0 0.00 0.00 0.00 49 1014.1
20260901234521 62 151 0.0 5.0 0.00 0.00 0.00 50 1014.1
20260901233020 62 126 0.0 9.0 0.00 0.00 0.00 51 1014.1
20260901231525 60 138 0.0 3.0 0.00 0.00 0.00 52 1014.1
20260901230019 60 106 0.0 2.0 0.00 0.00 0.00 54 1013.9
20260901224529 61 154 0.0 3.0 0.00 0.00 0.00 51 1014.1
20260901223017 62 202 0.0 1.0 0.00 0.00 0.00 51 1013.8
20260901221516 62 131 0.0 8.0 0.00 0.00 0.00 53 1013.8
20260901220015 63 140 0.0 11.0 0.00 0.00 0.00 52 1013.7
20260901214514 64 145 0.0 3.0 0.00 0.00 0.00 49 1013.6
20260901213021 65 147 0.0 10.0 0.00 0.00 0.00 48 1013.5
20260901211513 66 152 0.0 4.0 0.00 0.00 0.00 46 1013.5
20260901210013 66 164 0.0 6.0 0.00 0.00 0.00 44 1013.5
20260901204511 67 160 0.0 8.0 0.00 0.00 0.00 41 1013.2
20260901203010 67 132 0.0 15.0 0.00 0.00 0.00 41 1013.2
20260901201510 68 139 0.0 15.0 0.00 0.00 0.00 38 1013.1
20260901200011 68 168 0.0 20.0 0.00 0.00 0.00 39 1013.2
20260901194505 67 139 0.0 15.0 0.00 0.00 0.00 39 1013.3
20260901193101 66 176 1.0 13.0 0.00 0.00 0.00 36 1013.4
20260901193001 66 207 0.0 13.0 0.00 0.00 0.00 36 1013.5